Allentown, PA

3:26 AM EDT on May 28, 2017 (GMT -0400)
Allentown

Weather History for KXLL - November, 2013

Change the Weather History Date:

Wednesday, November 20, 2013

  Actual Average (KABE) Record (KABE)
Temperature  
Mean Temperature 37 °F -  
Max Temperature 44 °F 50 °F 75 °F (1985)
Min Temperature 30 °F 32 °F 12 °F (1924)
Degree Days  
Heating Degree Days 28    
Moisture  
Dew Point 15 °F    
Average Humidity 46    
Maximum Humidity 69    
Minimum Humidity 21    
Precipitation  
Precipitation 0.00 in - - ()
Sea Level Pressure  
Sea Level Pressure 30.52 in    
Wind  
Wind Speed 5 mph (NE)    
Max Wind Speed 10 mph    
Max Gust Speed -    
Visibility 10 miles    
Events      
Averages and records for this station are not official NWS values.
T = Trace of Precipitation, MM = Missing Value Source: NWS Daily Summary

Daily Weather History Graph

Daily Weather History Graph

Search for Another Location

Airport or City:

Trip Planner

Search our weather history database for the weather conditions in past years. The results will help you decide how hot, cold, wet, or windy it might be!

Date:

Astronomy

Nov. 20, 2013 Rise Set
Actual Time 6:54 AM EST 4:40 PM EST
Civil Twilight 6:24 AM EST 5:10 PM EST
Nautical Twilight 5:51 AM EST 5:43 PM EST
Astronomical Twilight 5:18 AM EST 6:15 PM EST
Moon 7:21 PM EST (11/20) 9:17 AM EST (11/20)
Length of Visible Light 10h 45m
Length of Day
9h 46m
Waning Gibbous, 91% of the Moon is Illuminated
Nov 20
Waning Gibbous
Nov 25
Last Quarter
Dec 2
New
Dec 9
First Quarter
Dec 17
Full

Hourly Weather History & Observations

Time (EST) Temp. Windchill Dew Point Humidity Pressure Visibility Wind Dir Wind Speed Gust Speed Precip Events Conditions
12:15 AM 33.8 °F 27.7 °F 21.2 °F 60% 30.39 in 10.0 mi NNW 6.9 mph - N/A   Clear
12:35 AM 32.0 °F 24.2 °F 21.2 °F 64% 30.39 in 10.0 mi North 9.2 mph - N/A   Clear
12:55 AM 32.0 °F 26.4 °F 21.2 °F 64% 30.39 in 10.0 mi North 5.8 mph - N/A   Clear
1:15 AM 33.8 °F - 21.2 °F 60% 30.39 in 10.0 mi Calm Calm - N/A   Clear
1:35 AM 33.8 °F - 21.2 °F 60% 30.40 in 10.0 mi Calm Calm - N/A   Clear
1:55 AM 33.8 °F 29.6 °F 21.2 °F 60% 30.40 in 10.0 mi NNE 4.6 mph - N/A   Clear
2:15 AM 32.0 °F 28.7 °F 21.2 °F 64% 30.41 in 10.0 mi North 3.5 mph - N/A   Clear
2:35 AM 32.0 °F 26.4 °F 21.2 °F 64% 30.41 in 10.0 mi North 5.8 mph - N/A   Clear
2:55 AM 32.0 °F 26.4 °F 21.2 °F 64% 30.42 in 10.0 mi North 5.8 mph - N/A   Clear
3:15 AM 32.0 °F 25.6 °F 21.2 °F 64% 30.43 in 10.0 mi North 6.9 mph - N/A   Clear
3:35 AM 32.0 °F - 21.2 °F 64% 30.43 in 10.0 mi Calm Calm - N/A   Clear
3:55 AM 32.0 °F - 21.2 °F 64% 30.45 in 10.0 mi Calm Calm - N/A   Clear
4:15 AM 32.0 °F - 21.2 °F 64% 30.45 in 10.0 mi Calm Calm - N/A   Clear
4:35 AM 32.0 °F 28.7 °F 21.2 °F 64% 30.46 in 10.0 mi North 3.5 mph - N/A   Clear
4:55 AM 30.2 °F 26.7 °F 21.2 °F 69% 30.46 in 10.0 mi NE 3.5 mph - N/A   Clear
5:15 AM 30.2 °F 26.7 °F 21.2 °F 69% 30.47 in 10.0 mi East 3.5 mph - N/A   Clear
5:35 AM 32.0 °F 25.6 °F 19.4 °F 60% 30.47 in 10.0 mi NNE 6.9 mph - N/A   Clear
5:55 AM 30.2 °F 25.4 °F 19.4 °F 64% 30.48 in 10.0 mi NNE 4.6 mph - N/A   Clear
6:15 AM 30.2 °F 24.3 °F 19.4 °F 64% 30.49 in 10.0 mi NE 5.8 mph - N/A   Clear
6:35 AM 30.2 °F 26.7 °F 19.4 °F 64% 30.50 in 10.0 mi ENE 3.5 mph - N/A   Clear
6:55 AM 32.0 °F 27.5 °F 19.4 °F 60% 30.51 in 10.0 mi NE 4.6 mph - N/A   Clear
7:15 AM 32.0 °F 28.7 °F 19.4 °F 60% 30.52 in 10.0 mi NE 3.5 mph - N/A   Clear
7:35 AM 32.0 °F 27.5 °F 21.2 °F 64% 30.52 in 10.0 mi NNE 4.6 mph - N/A   Clear
7:55 AM 32.0 °F 28.7 °F 21.2 °F 64% 30.53 in 10.0 mi NE 3.5 mph - N/A   Clear
8:15 AM 32.0 °F 27.5 °F 21.2 °F 64% 30.53 in 10.0 mi NNE 4.6 mph - N/A   Clear
8:35 AM 33.8 °F 27.7 °F 21.2 °F 60% 30.54 in 10.0 mi North 6.9 mph - N/A   Clear
8:55 AM 33.8 °F 27.0 °F 21.2 °F 60% 30.54 in 10.0 mi NNE 8.1 mph - N/A   Clear
9:15 AM 33.8 °F 26.4 °F 19.4 °F 56% 30.55 in 10.0 mi NE 9.2 mph - N/A   Clear
9:35 AM 35.6 °F 29.2 °F 19.4 °F 52% 30.56 in 10.0 mi NE 8.1 mph - N/A   Clear
9:55 AM 37.4 °F 31.4 °F 19.4 °F 48% 30.57 in 10.0 mi NNE 8.1 mph - N/A   Clear
10:15 AM 37.4 °F 32.1 °F 17.6 °F 45% 30.57 in 10.0 mi NE 6.9 mph - N/A   Clear
10:35 AM 39.2 °F 33.6 °F 15.8 °F 39% 30.57 in 10.0 mi NNE 8.1 mph - N/A   Clear
10:55 AM 41.0 °F 34.7 °F 14.0 °F 33% 30.57 in 10.0 mi East 10.4 mph - N/A   Clear
11:15 AM 41.0 °F 35.8 °F 14.0 °F 33% 30.57 in 10.0 mi NNE 8.1 mph - N/A   Clear
11:35 AM 41.0 °F 35.8 °F 14.0 °F 33% 30.56 in 10.0 mi NE 8.1 mph - N/A   Clear
11:55 AM 41.0 °F 36.4 °F 12.2 °F 31% 30.56 in 10.0 mi ENE 6.9 mph - N/A   Clear
12:15 PM 42.8 °F 38.6 °F 12.2 °F 29% 30.56 in 10.0 mi NE 6.9 mph - N/A   Clear
12:35 PM 42.8 °F 39.3 °F 12.2 °F 29% 30.56 in 10.0 mi NE 5.8 mph - N/A   Clear
12:55 PM 42.8 °F 39.3 °F 10.4 °F 27% 30.55 in 10.0 mi NE 5.8 mph - N/A   Clear
1:15 PM 42.8 °F - 10.4 °F 27% 30.55 in 10.0 mi Calm Calm - N/A   Clear
1:35 PM 44.6 °F - 10.4 °F 25% 30.55 in 10.0 mi Calm Calm - N/A   Clear
1:55 PM 44.6 °F 40.7 °F 10.4 °F 25% 30.54 in 10.0 mi NE 6.9 mph - N/A   Clear
2:15 PM 44.6 °F - 10.4 °F 25% 30.54 in 10.0 mi Calm Calm - N/A   Clear
2:35 PM 44.6 °F 41.4 °F 8.6 °F 23% 30.54 in 10.0 mi ENE 5.8 mph - N/A   Clear
2:55 PM 44.6 °F 41.4 °F 8.6 °F 23% 30.54 in 10.0 mi East 5.8 mph - N/A   Clear
3:15 PM 44.6 °F 40.7 °F 8.6 °F 23% 30.53 in 10.0 mi East 6.9 mph - N/A   Clear
3:35 PM 44.6 °F 40.7 °F 8.6 °F 23% 30.53 in 10.0 mi East 6.9 mph - N/A   Clear
3:55 PM 44.6 °F 42.2 °F 6.8 °F 21% 30.53 in 10.0 mi East 4.6 mph - N/A   Clear
4:15 PM 42.8 °F 39.3 °F 6.8 °F 23% 30.54 in 10.0 mi East 5.8 mph - N/A   Clear
4:35 PM 42.8 °F 40.1 °F 5.0 °F 21% 30.53 in 10.0 mi East 4.6 mph - N/A   Clear
4:55 PM 41.0 °F 37.1 °F 6.8 °F 24% 30.54 in 10.0 mi East 5.8 mph - N/A   Clear
5:15 PM 41.0 °F 38.0 °F 6.8 °F 24% 30.54 in 10.0 mi East 4.6 mph - N/A   Clear
5:35 PM 37.4 °F - 6.8 °F 28% 30.55 in 10.0 mi Calm Calm - N/A   Clear
5:55 PM 39.2 °F 37.0 °F 8.6 °F 28% 30.55 in 10.0 mi SE 3.5 mph - N/A   Clear
6:15 PM 39.2 °F - 6.8 °F 26% 30.55 in 10.0 mi Calm Calm - N/A   Clear
6:35 PM 35.6 °F - 8.6 °F 33% 30.56 in 10.0 mi Calm Calm - N/A   Clear
6:55 PM 35.6 °F - 8.6 °F 33% 30.56 in 10.0 mi Calm Calm - N/A   Clear
7:15 PM 35.6 °F - 8.6 °F 33% 30.57 in 10.0 mi Calm Calm - N/A   Clear
7:35 PM 33.8 °F - 10.4 °F 38% 30.57 in 10.0 mi Calm Calm - N/A   Clear
7:55 PM 33.8 °F - 12.2 °F 41% 30.58 in 10.0 mi Calm Calm - N/A   Clear
8:15 PM 32.0 °F - 12.2 °F 44% 30.58 in 10.0 mi Calm Calm - N/A   Clear
8:35 PM 32.0 °F - 14.0 °F 48% 30.59 in 10.0 mi Calm Calm - N/A   Clear
8:55 PM 32.0 °F - 12.2 °F 44% 30.59 in 10.0 mi Calm Calm - N/A   Clear
9:15 PM 32.0 °F - 12.2 °F 44% 30.59 in 10.0 mi Calm Calm - N/A   Clear
9:35 PM 32.0 °F - 12.2 °F 44% 30.59 in 10.0 mi Calm Calm - N/A   Clear
9:55 PM 32.0 °F - 14.0 °F 48% 30.59 in 10.0 mi Calm Calm - N/A   Clear
10:15 PM 32.0 °F - 14.0 °F 48% 30.60 in 10.0 mi Calm Calm - N/A   Clear
10:35 PM 32.0 °F 26.4 °F 15.8 °F 51% 30.60 in 10.0 mi NE 5.8 mph - N/A   Clear
10:55 PM 32.0 °F 27.5 °F 15.8 °F 51% 30.60 in 10.0 mi NE 4.6 mph - N/A   Clear
11:15 PM 32.0 °F 28.7 °F 14.0 °F 48% 30.60 in 10.0 mi NNE 3.5 mph - N/A   Clear
11:35 PM 32.0 °F - 12.2 °F 44% 30.60 in 10.0 mi Calm Calm - N/A   Clear
11:55 PM 32.0 °F 28.7 °F 14.0 °F 48% 30.60 in 10.0 mi NNE 3.5 mph - N/A   Clear